Other Public Products
Issued by NWS Grand Forks, ND

Home | Current Version | Previous Version | Graphics & Text | Print | Product List | Glossary On
Versions: 1 2 3 4 5 6 7 8 9 10 11 12 13 14 15 16 17 18 19 20 21 22 23 24 25 26 27 28 29 30 31 32 33 34 35 36 37 38 39 40 41 42 43 44 45 46 47 48 49 50
000
FPUS83 KFGF 301031
OPUFGF
PRAIRIE TO PINES WEATHER ROUNDUP
NATIONAL WEATHER SERVICE EASTERN NORTH DAKOTA/GRAND FORKS ND
500 AM CDT THU JUL 30 2015

 **SATELLITE DATA USED TO AUGMENT SKY COVER AT AUTOMATED STATIONS**
 *****  WEATHER ACROSS EASTERN NORTH DAKOTA  *****

CITY           SKY/WX    TMP DP  RH WIND       PRES   REMARKS
GRAND FORKS    CLEAR     62  56  80 W8        29.95R
GRAND FORKS AF CLEAR     63  56  79 W8        29.96R
GRAND CITY NWS   N/A     61 N/A N/A W5          N/A
BUXTON         NOT AVBL
DEVILS LAKE    CLEAR     61  50  67 W12       30.01R
FARGO          CLEAR     60  55  83 W8        30.00R
WAHPETON ARPT  SUNNY     57  52  82 W6        30.04R
$$

 *****  WEATHER ACROSS CENTRAL AND WESTERN NORTH DAKOTA  *****

CITY           SKY/WX    TMP DP  RH WIND       PRES   REMARKS
JAMESTOWN      CLEAR     59  53  80 W7        30.06R
BISMARCK       CLEAR     56  50  80 SW6       30.11S
MINOT          PTCLDY    62  51  67 W10       30.07S
MINOT AFB      MOCLDY    60  57  89 W12       30.08R
GARRISON         N/A     54  50  86 NW8       30.11R
WILLISTON      PTCLDY    57  51  80 CALM      30.13F
DICKINSON      CLEAR     52  45  77 SW5       30.15R
HETTINGER      CLEAR     48  43  82 CALM      30.20R
$$

 *****  OTHER OBSERVATIONS NORTHEAST NORTH DAKOTA  *****

CITY           SKY/WX    TMP DP  RH WIND       PRES   REMARKS
WALHALLA       FAIR      63  59  88 MISG      29.94S
LANGDON        FAIR      55  54  94 W10       29.99R
CAVALIER       FAIR      63  55  77 W10       29.94R
GRAFTON        FAIR      63  57  82 W13       29.95R
CANDO          FAIR      57  54  88 W9        30.02S
FORT TOTTEN      N/A     58  53  81 W2        29.95
ROLLA          FAIR      61  52  72 NW8       30.02S
RUGBY          NOT AVBL
 ***** THE ABOVE OBSERVATIONS ARE NON NWS ARE NOT QUALITY
        CONTROLLED AND MAY MIS-REPORT RAIN FOR SNOW...
$$

 *****  OTHER OBSERVATIONS SOUTHEAST NORTH DAKOTA *****

CITY           SKY/WX    TMP DP  RH WIND       PRES   REMARKS
COOPERSTOWN    NOT AVBL
VALLEY CITY    FAIR      59  55  88 W10       30.04S
OAKES            N/A     55  55 100 W8        30.08R
GWINNER          N/A     57  54  88 W10       30.07R
BUFFALO        NOT AVBL
WYNDMERE       NOT AVBL
 ***** THE ABOVE OBSERVATIONS ARE NON NWS ARE NOT QUALITY
       CONTROLLED AND MAY MIS-REPORT RAIN FOR SNOW...
$$

  *****  WEATHER ACROSS NORTHERN MINNESOTA  *****

CITY           SKY/WX    TMP DP  RH WIND       PRES   REMARKS
FLAG ISLAND    CLEAR     61  57  88 W10       29.88R
WARROAD        CLOUDY    57  54  88 W6        29.91S
ROSEAU         PTCLDY    61  55  82 W6        29.91S
HALLOCK        CLEAR     54  52  94 CALM      29.92R
THF RVR FALLS  CLEAR     59  55  88 W7        29.95R
HALSTAD        NOT AVBL
FOSSTON        CLEAR     54  52  94 CALM      29.98R
BAUDETTE       CLEAR     56  53  90 W6        29.90R
WASKISH        CLEAR     64  57  77 W8        29.93R
CROOKSTON      CLEAR     59  57  94 W7        29.96S
$$
  *****  WEATHER ACROSS CENTRAL AND WEST MINNESOTA  *****

CITY           SKY/WX    TMP DP  RH WIND       PRES   REMARKS
BEMIDJI        CLEAR     59  56  88 W8        29.96R
PARK RAPIDS    CLEAR     57  54  89 W5        29.98S
WADENA         CLEAR     59  54  82 SW6       30.00S
DETROIT LAKES  CLEAR     63  54  72 W8        30.02R
MOORHEAD       CLEAR     61  55  82 W8        30.01R
FERGUS FALLS   CLEAR     57  54  88 W3        30.03R
ELBOW LAKE     FAIR      57  53  85 W6        30.04R
MORRIS MN      CLEAR     61  54  77 W8        30.04S
STAPLES        CLEAR     59  54  82 W7        30.00R
WHEATON        CLEAR     61  52  72 W9        30.07R
$$
  *****  WEATHER ELSEWHERE ACROSS MINNESOTA  *****

CITY           SKY/WX    TMP DP  RH WIND       PRES   REMARKS
DULUTH         CLEAR     60  55  83 W12       29.92R
INTRNTL FALLS  CLEAR     57  54  89 W7        29.88R
ELY            CLEAR     61  54  77 W8        29.87R
CLOQUET        CLEAR     63  54  72 W7        29.94R
BRAINERD       CLEAR     63  56  78 W7        29.98S
HIBBING        CLEAR     60  54  80 W6        29.91R
ALEXANDRIA     CLEAR     63  53  70 W10       30.05R
SAINT CLOUD    CLEAR     62  55  77 W6        30.00R
MINNEAPOLIS    CLEAR     65  55  70 SW9       30.02R
$$

  *****  WEATHER ACROSS SOUTH DAKOTA  *****

CITY           SKY/WX    TMP DP  RH WIND       PRES   REMARKS
SIOUX FALLS    PTCLDY    58  54  86 CALM      30.12F
BROOKINGS      CLEAR     61  52  72 CALM      30.14S
WATERTOWN      CLEAR     62  54  74 SW10      30.11R
HURON          CLEAR     59  53  80 CALM      30.11R
SISSETON         N/A     66  54  65 W12       30.06R
ABERDEEN       CLEAR     55  51  86 SW3       30.11R
MITCHELL       CLEAR     57  54  89 CALM      30.12S
PIERRE         CLEAR     57  47  69 NW5       30.13R
MOBRIDGE       CLEAR     56  53  90 CALM      30.12S
RAPID CITY     CLEAR     57  46  66 NW10      30.23R
$$

  *****  SOME WEATHER IN NEARBY STATES *****

CITY           SKY/WX    TMP DP  RH WIND       PRES   REMARKS
GLASGOW MT     PTCLDY    58  52  80 N6        30.14R
GREAT FALLS MT CLEAR     53  44  71 SE5       30.25R
CHEYENNE WY    CLEAR     54  47  77 W5        30.35F
SCOTTSBLUFF NE CLEAR     58  50  75 E8        30.25S
OMAHA NE       CLEAR     64  60  87 SE7       30.18R
DES MOINES IA  CLEAR     64  57  78 SW5       30.14R
DAVENPORT IA   CLEAR     62  59  90 W6        30.09S
CHICAGO IL     CLEAR     68  58  70 W7        30.02S
EAU CLAIRE WI  CLEAR     62  55  77 SW9       29.98S
LA CROSSE WI   CLEAR     69  55  60 W6        30.02S
$$

  *****  SOME NATIONAL WEATHER *****

CITY           SKY/WX    TMP DP  RH WIND       PRES   REMARKS
LA GUARDIA NY  PTCLDY    79  71  76 SW8       29.90S
RALEIGH NC     PTCLDY    74  70  87 CALM      29.96F
ATLANTA GA     MOCLDY    78  73  84 CALM      29.98R
NEW ORLEANS LA MOCLDY    78  74  87 NW5       29.99S
OKLAHOMA CITY  PTCLDY    77  74  90 NE7       30.11S
ALBUQUERQUE NM CLOUDY    67  57  70 E13       30.36R
SALT LAKE CITY CLEAR     64  39  39 S5        30.26R
LOS ANGELES CA PTCLDY    68  63  84 W7        29.97F
BOISE ID       CLEAR     65  37  35 SE7       30.17S
SEATTLE WA     CLEAR     66  52  60 N6        30.10S
$$

*** WEATHER ACROSS MANITOBA...SASKATCHEWAN AND ONTARIO ***
                ***ONTARIO***

CITY           SKY/WX    TMP DP  RH WIND       PRES   REMARKS
GERALDTON      DRZL/FOG  59  59 100 W12G17    29.54R VSB 1
THUNDER BAY    PTCLDY    61  55  82 NW22G29   29.69R
SIOUX LOOKOUT  MOCLDY    59  54  82 NW14G20   29.77R
TORONTO        PTCLDY    68  61  77 W7        29.83R
BIG TROUT LK   CLOUDY    55  54  94 NW28G35   29.46R
PICKLE LAKE    NOT AVBL
DRYDEN         CLEAR     59  52  77 W8        29.82R
KENORA         PTCLDY    57  55  94 NW7       29.87R
$$
                *** MANITOBA***

CITY           SKY/WX    TMP DP  RH WIND       PRES   REMARKS
BRANDON        MOCLDY    57  55  94 W12       29.97R
DAUPHIN        CLOUDY    61  55  82 W13G18    29.91R
ISLAND LAKE    CLOUDY    59  54  82 NW12      29.71R
PILOT MOUND      N/A     59  54  82 W7          N/A
THE PAS        PTCLDY    61  55  82 W8        29.84R
THOMPSON       MOCLDY    55  54  94 NW7       29.76R
WINNIPEG       MOCLDY    57  55  94 SW7       29.90R
LYNN LAKE        N/A    N/A N/A N/A MISG        N/A
CHURCHILL      FOG       48  48 100 N21       29.64R VSB 1/2
GILLAM           N/A     57  54  88 NW18G25   29.62S
$$
                ***SASKATCHEWAN***

CITY           SKY/WX    TMP DP  RH WIND       PRES   REMARKS
ESTEVAN        PTCLDY    54  52  94 SW10      30.08R
KINDERSLEY     PTCLDY    50  46  87 VRB2      30.16R
LLOYDMINSTER   CLEAR     50  48  93 W8        30.10S
PRINCE ALBERT  PTCLDY    55  50  82 W10       29.97
REGINA         CLEAR     52  50  93 W8        30.09R
YORKTON        CLEAR     55  52  88 W12       29.98S


USA.gov is the U.S. government's official web portal to all federal, state and local government web resources and services.